Regional Weather Roundup
Issued by NWS

Home | Current Version | Previous Version | Graphics & Text | Print | Product List | Glossary On
Versions: 1 2 3 4 5 6 7 8 9 10 11 12 13 14 15 16 17 18 19 20 21 22 23 24 25 26 27 28 29 30 31 32 33 34 35 36 37 38 39 40 41 42 43 44 45 46 47 48 49 50
000
ASUS45 KCYS 250610
RWRWY

WYOMING REGIONAL WEATHER ROUNDUP
NATIONAL WEATHER SERVICE CHEYENNE WY
1200 AM MDT THU MAY 25 2017

NOTE:  "FAIR" INDICATES FEW OR NO CLOUDS BELOW 12,000 FEET
WITH NO SIGNIFICANT WEATHER AND/OR OBSTRUCTIONS TO VISIBILITY.

WYZ001-250700-
YELLOWSTONE NATIONAL PARK

CITY           SKY/WX    TMP DP  RH WIND       PRES   REMARKS
LK YELLOWSTONE   N/A     40  11  30 NW7       29.65S
6HR MIN TEMP:  40; 6HR MAX TEMP:  58;

W YELLOWSTONE  NOT AVBL

$$
WYZ002>013-054>058-071-098>099-250700-
NORTHERN WYOMING

CITY           SKY/WX    TMP DP  RH WIND       PRES   REMARKS
JACKSON        FAIR      52  14  22 SW10G16   29.61F
CODY           FAIR      51  18  27 NW9       29.56R
GREYBULL       FAIR      61  25  25 NW17      29.42R
6HR MIN TEMP:  61; 6HR MAX TEMP:  82;

WORLAND        FAIR      52  38  58 SW12      29.47R
6HR MIN TEMP:  49; 6HR MAX TEMP:  83;

SHERIDAN       FAIR      51  36  56 W12       29.50R
6HR MIN TEMP:  50; 6HR MAX TEMP:  71;

BUFFALO        FAIR      51  32  48 NW12      29.54S
6HR MIN TEMP:  51; 6HR MAX TEMP:  81;

GILLETTE       FAIR      49  34  56 N8        29.49S
6HR MIN TEMP:  47; 6HR MAX TEMP:  79;

HULETT         CLOUDY    55  41  58 NE3       29.50R
NEWCASTLE      FAIR      55  45  67 NW15G21   29.45R

$$
WYZ014>020-022>026-101>103-250700-
CENTRAL WYOMING

CITY           SKY/WX    TMP DP  RH WIND       PRES   REMARKS
BIG PINEY      LGT RAIN  45  40  82 N18G30    29.70R
6HR MIN TEMP:  45; 6HR MAX TEMP:  57; 6HR PCP:  0.05;

PINEDALE       LGT RAIN  43  36  75 NW24G33   29.73R
DUBOIS         FAIR      48  23  37 W21G36    29.60S
LANDER         CLOUDY    59  40  49 SW24G31   29.53R
6HR MIN TEMP:  54; 6HR MAX TEMP:  72; 6HR PCP: TRACE;

RIVERTON       MOCLDY    61  37  41 W20G31    29.56R
6HR MIN TEMP:  57; 6HR MAX TEMP:  75;

CASPER         CLOUDY    58  41  53 W9        29.53R
6HR MIN TEMP:  57; 6HR MAX TEMP:  77;

DOUGLAS        FAIR      59  46  62 NE5       29.52R
6HR MIN TEMP:  59; 6HR MAX TEMP:  81;


$$
WYZ021-027>030-104>119-250700-
SOUTHERN WYOMING

CITY           SKY/WX    TMP DP  RH WIND       PRES   REMARKS
EVANSTON       FAIR      50  42  74 W6        29.70S
6HR MIN TEMP:  49; 6HR MAX TEMP:  68;

FORT BRIDGER   FAIR      53  42  65 SW12      29.70F
ROCK SPRINGS   LGT RAIN  53  41  63 NW16G25   29.70F
6HR MIN TEMP:  53; 6HR MAX TEMP:  72; 6HR PCP: TRACE;

DIXON            N/A     59  38  45 SW3       29.68F
RAWLINS        FAIR      54  40  59 NW10      29.66S
6HR MIN TEMP:  52; 6HR MAX TEMP:  73;

LARAMIE        MOCLDY    55  35  47 W21G29    29.70R
6HR MIN TEMP:  47; 6HR MAX TEMP:  70; 6HR PCP: TRACE;

CHEYENNE       FAIR      52  38  58 W12       29.61F
6HR MIN TEMP:  52; 6HR MAX TEMP:  76;

TORRINGTON     FAIR      59  41  51 NW9       29.45R
6HR MIN TEMP:  58; 6HR MAX TEMP:  85;


$$



USA.gov is the U.S. government's official web portal to all federal, state and local government web resources and services.